Tracking 19164 objects as of 21-May-2018
HD Live streaming from Space Station
objects crossing your sky now

INTELSAT 4A-F6

Track INTELSAT 4A-F6 now!
INTELSAT 4A-F6 is classified as:


NORAD ID: 10778
Int'l Code: 1978-035A
Perigee: 35,764.6 km
Apogee: 35,816.6 km
Inclination: 13.8 °
Period: 1,435.9 minutes
Semi major axis: 42161 km
RCS: 1.2589 m2 (large)
Launch date: March 31, 1978
Source: International Telecommunications Satellite Organization (ITSO)
Launch site: AIR FORCE EASTERN TEST RANGE (AFETR)
aabbcc
Your satellite tracking list
Your tracking list is empty




NASA's NSSDC Master Catalog

Two Line Element Set (TLE):
1 10778U 78035A   18140.88033785 -.00000293  00000-0  00000+0 0  9996
2 10778  13.8309 338.1115 0006167 260.9413  98.4308  1.00282891 92684
Source of the keplerian elements: AFSPC